Lexington Weather

Lexington, Massachusetts, USA

69°F
8/17/2022 7:20pm 
  • Lexington Conditions: Overcast
  • Temperature: 69.4°F / 20.8°CColder 0.8°F than last hour.
  • Dew Point: 57.2°FDecreased 1.4°Fsince last hour.
  • Relative Humidity: 65%Decreased 2.0% since last hour.
  • Wind: Calm, 10-min avg: Calm, gust: None
  • Barometer: 29.84 in Steady
  • Visibility: 10 miles
  • Rain Today: 0.00 in
  •   

Regional Weather Roundup
for Boston, MA

        
000
ASUS41 KBOX 111810
RWRBOX

REGIONAL WEATHER ROUNDUP
NATIONAL WEATHER SERVICE BOSTON/NORTON MA
200 PM EDT THU AUG 11 2022

NOTE:  "FAIR" INDICATES FEW OR NO CLOUDS BELOW 12,000 FEET WITH NO 
SIGNIFICANT WEATHER AND/OR OBSTRUCTIONS TO VISIBILITY.

MAZALL-111900-
EASTERN MASSACHUSETTS
  
CITY           SKY/WX    TMP DP  RH WIND       PRES   REMARKS
BOSTON         CLOUDY    76  67  73 SE10      29.88F                  
6HR MIN TEMP:  68; 6HR MAX TEMP:  76; 6HR PCP: TRACE;                

BEVERLY        PTSUNNY   77  66  68 SE9       29.87F                  
LAWRENCE       PTSUNNY   80  62  54 SW6       29.88F                  
BEDFORD        PTSUNNY   80  60  50 VRB6      29.86F                  
BLUE HILL      NOT AVBL                                               
NORWOOD        PTSUNNY   82  66  58 SE7       29.86F                  
MARSHFIELD     CLOUDY    72  70  94 SE5       29.88F                  
PLYMOUTH       CLOUDY    72  70  93 VRB3      29.89F                  
TAUNTON        CLOUDY    73  69  87 SE6       29.88F                  
NEW BEDFORD    CLOUDY    72  70  93 SE5       29.88F                  
$$

MAZALL-111900-
CAPE COD AND THE ISLANDS
  
CITY           SKY/WX    TMP DP  RH WIND       PRES   REMARKS
FALMOUTH       LGT RAIN  70  70 100 SE8       29.90F                  
HYANNIS        RAIN      71  68  90 SE5       29.88F FOG              
CHATHAM        RAIN      68  66  93 SE3       29.91F FOG              
NANTUCKET      LGT RAIN  70  69  97 E5        29.89F FOG              
MARTHAS VNYRD  RAIN      70  69  97 E8        29.88F FOG              
$$
 
MAZALL-111900-
CENTRAL AND WESTERN MASSACHUSETTS
  
CITY           SKY/WX    TMP DP  RH WIND       PRES   REMARKS
WORCESTER      PTSUNNY   78  55  44 W6        29.90F                  
6HR MIN TEMP:  66; 6HR MAX TEMP:  78;                                

FITCHBURG      NOT AVBL                                               
ORANGE         PTSUNNY   81  57  43 NW9       29.89F                  
SPRINGFIELD    PTSUNNY   81  56  41 N5        29.84F                  
WESTFIELD      MOSUNNY   84  56  38 W7        29.87F                  
NORTH ADAMS    MOSUNNY   79  59  50 N6        29.90F                  
PITTSFIELD     PTSUNNY   78  56  46 VRB5      29.91F                  
$$
 
RIZALL-111900-
RHODE ISLAND
  
CITY           SKY/WX    TMP DP  RH WIND       PRES   REMARKS
PROVIDENCE     PTSUNNY   76  70  82 S9        29.88F                  
6HR MIN TEMP:  72; 6HR MAX TEMP:  76; 6HR PCP:  0.14;                

NEWPORT        CLOUDY    70  70 100 SE7       29.88F                  
BLOCK ISLAND   CLOUDY    74  70  87 VRB5      29.89F                  
SMITHFIELD     PTSUNNY   77  68  73 S3        29.89F                  
WESTERLY       PTSUNNY   75  70  84 S7        29.88S                  
$$
 
CTZALL-111900-
CONNECTICUT
  
CITY           SKY/WX    TMP DP  RH WIND       PRES   REMARKS
BRADLEY INTL   PTSUNNY   82  58  43 VRB3      29.87F                  
6HR MIN TEMP:  68; 6HR MAX TEMP:  83;                                

HARTFORD       MOSUNNY   83  58  42 S6        29.86F                  
BRIDGEPORT     MOSUNNY   79  71  76 S10       29.87F                  
DANBURY        SUNNY     85  58  39 N9        29.90F                  
GROTON         PTSUNNY   77  71  82 S8        29.88F                  
NEW HAVEN      PTSUNNY   82  72  71 S10       29.88F                  
CHESTER        PTSUNNY   81  68  65 CALM      29.89F                  
MERIDEN        MOSUNNY   83  58  42 W8        29.87F                  
WILLIMANTIC    PTSUNNY   80  60  50 VRB3      29.88F                  
OXFORD         MOSUNNY   79  58  48 CALM      29.91F                  
$$

MEZ002-015-021-024-NHZ003-005-008-011-012-014-VTZ005-008-111900-
NORTHERN NEW ENGLAND
  
CITY           SKY/WX    TMP DP  RH WIND       PRES   REMARKS
PORTLAND ME    PTSUNNY   73  64  73 S13       29.89F                  
6HR MIN TEMP:  65; 6HR MAX TEMP:  76;                                

BANGOR ME      PTSUNNY   75  60  59 S10       29.88F                  
CONCORD NH     CLOUDY    79  60  52 VRB5      29.87F                  
MANCHESTER NH  PTSUNNY   82  58  43 CALM      29.85F                  
NASHUA NH      PTSUNNY   82  58  43 VRB6      29.86F                  
PORTSMOUTH NH  PTSUNNY   75  64  68 SE6       29.87F                  
JAFFREY NH     PTSUNNY   79  55  43 W7        29.91F                  
KEENE NH       MOSUNNY   78  56  46 W6          N/A                   
BURLINGTON VT  PTSUNNY   80  59  48 S6        29.85F                  
MT. WASHINGTON NOT AVBL                                               
$$

NYZ052-076-111900-
EASTERN NEW YORK
  
CITY           SKY/WX    TMP DP  RH WIND       PRES   REMARKS
ALBANY         MOSUNNY   83  59  44 NW9       29.88F                  
6HR MIN TEMP:  67; 6HR MAX TEMP:  83;                                

NEW YORK CITY  MOSUNNY   85  59  41 E6        29.87F                  
6HR MIN TEMP:  74; 6HR MAX TEMP:  85; 6HR PCP:  0.02;                

$$
 
ANZALL-111900-
MARINE OBSERVATIONS
  
STATION/POSITION TIME  TEMP    WIND        PRES    VSBY  WAVE
                       AIR SEA DIR/SP/G                  HT/PER
                 (UTC) (F)     (DEG/KT/KT) (MB)    (MI)  (FT/S)
BOSTON BUOY      NOT AVBL
BUZZARDS BAY     NOT AVBL
NANTUCKET SOUND  NOT AVBL
MASS BAY-STELLWA NOT AVBL
ISLE OF SHOALS   NOT AVBL
S OF BLOCK IS    NOT AVBL
$$

......................KEY.........................
  SKY/WX - SKY CONDITION/PRESENT WEATHER
  TMP    - TEMPERATURE IN FAHRENHEIT
  DWPT   - DEWPOINT IN FAHRENHEIT
  RH     - RELATIVE HUMIDITY IN PERCENT
  WIND   - DIRECTION AND SPEED IN MPH
  PRES   - MEAN SEA LEVEL PRESSURE IN INCHES OF HG
  WCI    - WIND CHILL INDEX
  VSB    - VISIBILITY IN MILES
  HX     - HEAT INDEX
  TC     - TEMPERATURE IN CELSIUS
  VRB    - VARIABLE WIND DIRECTION
  N/A    - NOT AVAILABLE
  
      

Other recent Regional Weather Roundups

Wed Aug 17, 7:10pm

Wed Aug 17, 6:10pm

Wed Aug 17, 5:10pm

Wed Aug 17, 4:10pm

Wed Aug 17, 3:10pm

Wed Aug 17, 2:10pm

Wed Aug 17, 1:10pm

Wed Aug 17, 12:10pm

Wed Aug 17, 11:10am

Wed Aug 17, 10:10am

Wed Aug 17, 9:10am

Wed Aug 17, 8:10am

Wed Aug 17, 7:10am

Wed Aug 17, 6:10am

Wed Aug 17, 5:10am

Wed Aug 17, 4:10am

Wed Aug 17, 3:10am

Wed Aug 17, 2:10am

Wed Aug 17, 1:10am

Wed Aug 17, 12:10am

Tue Aug 16, 11:10pm

Tue Aug 16, 10:10pm

Tue Aug 16, 9:10pm

Tue Aug 16, 8:10pm

Tue Aug 16, 7:10pm

Tue Aug 16, 6:10pm

Tue Aug 16, 5:10pm

Tue Aug 16, 4:10pm

Tue Aug 16, 3:10pm

Tue Aug 16, 2:10pm

Tue Aug 16, 1:10pm

Tue Aug 16, 12:10pm

Tue Aug 16, 11:10am

Tue Aug 16, 10:10am

Tue Aug 16, 9:10am

Tue Aug 16, 8:10am

Tue Aug 16, 7:10am

Tue Aug 16, 6:10am

Tue Aug 16, 5:10am

Tue Aug 16, 4:10am

Tue Aug 16, 3:10am

Tue Aug 16, 2:10am

Tue Aug 16, 1:10am

Tue Aug 16, 12:10am

Mon Aug 15, 11:10pm

Mon Aug 15, 10:10pm

Mon Aug 15, 9:10pm

Mon Aug 15, 8:10pm

Mon Aug 15, 7:10pm

Mon Aug 15, 6:10pm

Mon Aug 15, 5:10pm

Mon Aug 15, 4:10pm

Mon Aug 15, 3:10pm

Mon Aug 15, 2:10pm

Mon Aug 15, 1:10pm

Mon Aug 15, 12:10pm

Mon Aug 15, 11:10am

Mon Aug 15, 10:10am

Mon Aug 15, 9:10am

Mon Aug 15, 8:10am

Mon Aug 15, 7:10am

Mon Aug 15, 6:10am

Mon Aug 15, 5:10am

Mon Aug 15, 4:10am

Mon Aug 15, 3:10am

Mon Aug 15, 2:10am

Mon Aug 15, 1:10am

Mon Aug 15, 12:10am

Sun Aug 14, 11:10pm

Sun Aug 14, 10:10pm

Sun Aug 14, 9:10pm

Sun Aug 14, 8:10pm

Sun Aug 14, 7:10pm

Sun Aug 14, 6:10pm

Sun Aug 14, 5:10pm

Sun Aug 14, 4:10pm

Sun Aug 14, 3:10pm

Sun Aug 14, 2:10pm

Sun Aug 14, 1:10pm

Sun Aug 14, 12:10pm

Sun Aug 14, 11:10am

Sun Aug 14, 10:10am

Sun Aug 14, 9:10am

Sun Aug 14, 8:10am

Sun Aug 14, 7:10am

Sun Aug 14, 6:10am

Sun Aug 14, 5:10am

Sun Aug 14, 4:10am

Sun Aug 14, 3:10am

Sun Aug 14, 2:10am

Sun Aug 14, 1:10am

Sun Aug 14, 12:10am

Sat Aug 13, 11:10pm

Sat Aug 13, 10:10pm

Sat Aug 13, 9:10pm

Sat Aug 13, 8:10pm

Sat Aug 13, 7:10pm

Sat Aug 13, 6:10pm

Sat Aug 13, 5:10pm

Sat Aug 13, 4:10pm

Sat Aug 13, 3:10pm

Sat Aug 13, 2:10pm

Sat Aug 13, 1:10pm

Sat Aug 13, 12:10pm

Sat Aug 13, 11:10am

Sat Aug 13, 10:10am

Sat Aug 13, 9:10am

Sat Aug 13, 8:10am

Sat Aug 13, 7:10am

Sat Aug 13, 6:10am

Sat Aug 13, 5:10am

Sat Aug 13, 4:10am

Sat Aug 13, 3:10am

Sat Aug 13, 2:10am

Sat Aug 13, 1:10am

Sat Aug 13, 12:10am

Fri Aug 12, 11:10pm

Fri Aug 12, 10:10pm

Fri Aug 12, 9:10pm

Fri Aug 12, 8:10pm

Fri Aug 12, 7:10pm

Fri Aug 12, 6:10pm

Fri Aug 12, 5:10pm

Fri Aug 12, 4:10pm

Fri Aug 12, 3:10pm

Fri Aug 12, 2:10pm

Fri Aug 12, 1:10pm

Fri Aug 12, 12:10pm

Fri Aug 12, 11:10am

Fri Aug 12, 10:10am

Fri Aug 12, 9:10am

Fri Aug 12, 8:10am

Fri Aug 12, 7:10am

Fri Aug 12, 6:10am

Fri Aug 12, 5:10am

Fri Aug 12, 4:10am

Fri Aug 12, 3:10am

Fri Aug 12, 2:10am

Fri Aug 12, 1:10am

Fri Aug 12, 12:10am

Thu Aug 11, 11:10pm

Thu Aug 11, 10:10pm

Thu Aug 11, 9:10pm

Thu Aug 11, 8:10pm

Thu Aug 11, 7:10pm

Thu Aug 11, 6:10pm

Thu Aug 11, 5:10pm

Thu Aug 11, 4:10pm

Thu Aug 11, 3:10pm

Thu Aug 11, 1:10pm

Thu Aug 11, 12:10pm

Thu Aug 11, 11:10am

Thu Aug 11, 10:10am

Thu Aug 11, 9:10am

Thu Aug 11, 8:10am

Thu Aug 11, 7:10am

Thu Aug 11, 6:10am

Thu Aug 11, 5:10am

Thu Aug 11, 4:10am

Thu Aug 11, 3:10am

Thu Aug 11, 2:10am

Thu Aug 11, 1:10am

Thu Aug 11, 12:10am

Wed Aug 10, 11:10pm

Wed Aug 10, 10:10pm

Wed Aug 10, 9:10pm

Wed Aug 10, 8:10pm

Meta data:

ID: a5f92c36-e3dc-4aeb-9403-ad09673e29a5
Link: https://api.weather.gov/products/a5f92c36-e3dc-4aeb-9403-ad09673e29a5